EW6607 Motilla Del Palancar current weather conditions

sailwx.info

Wind from 045 at 1 knots gusting 13

Air temperature 8.9° C
Dewpoint 4.9° C

Last reported at 2020-Jan-22 13:10 UTC.
Time now 2020-Jan-22 14:11 UTC

Location: N 39°34' W 001°55'.
View on Google Maps.

See reports from other nearby stations

  
Tides and Currents Weather Stations Pressure Air Temp Water Temp Dewpoint Dewpoint Depression Visibility Wind Speed Wind Dir Waves Ship Positions
date/time (UTC)wind fromknots sea level pressurealtimeterstation pressurevisibilityair tempwater tempwave heightnotes
2020-Jan-22 13:10 045 1 gusting 13 8.9
2020-Jan-22 13:00 045 8 gusting 13 8.9
2020-Jan-22 12:50 009 4 gusting 13 8.9
2020-Jan-22 12:40 004 6 gusting 17 8.3
2020-Jan-22 12:30 025 9 gusting 15 8.3
2020-Jan-22 12:20 028 6 gusting 13 7.8
2020-Jan-22 12:10 040 6 gusting 16 7.8
2020-Jan-22 12:00 044 7 gusting 16 7.8
2020-Jan-22 11:50 038 12 gusting 14 7.8
2020-Jan-22 11:40 025 9 gusting 14 7.2
2020-Jan-22 11:30 044 5 gusting 14 7.2
2020-Jan-22 11:20 028 8 gusting 13 7.2
2020-Jan-22 11:10 040 10 gusting 15 7.2
2020-Jan-22 11:00 004 11 gusting 14 6.7
2020-Jan-22 10:50 357 5 gusting 13 6.7
2020-Jan-22 10:40 355 5 gusting 13 6.1
2020-Jan-22 10:30 358 6 gusting 12 5.6
2020-Jan-22 10:20 012 4 gusting 8 5.6
2020-Jan-22 10:10 041 4 gusting 13 5.0
2020-Jan-22 10:00 044 6 gusting 13 5.0
2020-Jan-22 09:50 043 6 gusting 14 5.6
2020-Jan-22 09:40 043 8 gusting 15 5.6
2020-Jan-22 09:30 044 7 gusting 15 5.6
2020-Jan-22 09:20 015 6 gusting 14 5.6
2020-Jan-22 09:10 017 4 gusting 13 5.6
2020-Jan-22 09:00 001 3 gusting 8 5.6
2020-Jan-22 08:50 001 1 gusting 6 5.0
2020-Jan-22 08:40 001 3 gusting 6 5.0
2020-Jan-22 08:30 001 4 gusting 8 5.0
2020-Jan-22 08:20 355 4 gusting 6 5.0
2020-Jan-22 08:10 358 4 gusting 7 5.0
2020-Jan-22 08:00 351 5 gusting 8 5.0
2020-Jan-22 07:50 001 3 gusting 7 4.4
2020-Jan-22 07:40 001 5 gusting 9 4.4
2020-Jan-22 07:30 349 4 gusting 8 4.4
2020-Jan-22 07:20 001 3 gusting 6 3.9
2020-Jan-22 07:10 001 3 gusting 6 3.9
2020-Jan-22 07:00 355 6 gusting 9 4.4
2020-Jan-22 06:50 355 6 gusting 13 4.4
2020-Jan-22 06:40 350 6 gusting 10 4.4
2020-Jan-22 06:30 358 7 gusting 10 4.4
2020-Jan-22 06:20 001 6 gusting 10 4.4
2020-Jan-22 06:10 358 3 gusting 6 4.4
2020-Jan-22 06:00 001 3 gusting 6 3.9
2020-Jan-22 05:50 001 4 gusting 6 4.4
2020-Jan-22 05:40 354 2 gusting 6 3.9
2020-Jan-22 05:30 001 3 gusting 6 3.9
2020-Jan-22 05:20 001 1 gusting 6 4.4
2020-Jan-22 05:10 028 4 gusting 6 4.4
2020-Jan-22 05:00 003 3 gusting 6 5.0
2020-Jan-22 04:50 045 1 gusting 8 5.0
2020-Jan-22 04:40 091 5 gusting 8 5.0
2020-Jan-22 04:30 064 5 gusting 8 5.0
2020-Jan-22 04:20 002 6 gusting 8 5.0
2020-Jan-22 04:10 044 3 gusting 6 4.4
2020-Jan-22 04:00 017 1 gusting 4 4.4
2020-Jan-22 03:50 001 0 gusting 3 3.9
2020-Jan-22 03:40 001 3 gusting 4 3.9
2020-Jan-22 03:30 357 3 gusting 4 3.9
2020-Jan-22 03:20 007 1 gusting 7 3.9
2020-Jan-22 03:10 020 3 gusting 6 4.4
2020-Jan-22 03:00 025 5 gusting 8 3.9
2020-Jan-22 02:50 345 6 gusting 8 3.9
2020-Jan-22 02:40 004 3 gusting 8 4.4
2020-Jan-22 02:30 002 3 gusting 6 4.4
2020-Jan-22 02:20 023 4 gusting 7 4.4
2020-Jan-22 02:10 032 6 gusting 8 4.4
2020-Jan-22 02:00 046 1 gusting 6 4.4
2020-Jan-22 01:50 002 3 gusting 6 4.4
2020-Jan-22 01:40 011 2 gusting 6 4.4
2020-Jan-22 01:30 025 2 gusting 8 4.4
2020-Jan-22 01:20 005 6 gusting 9 4.4
2020-Jan-22 01:10 001 2 gusting 9 4.4
2020-Jan-22 01:00 001 5 gusting 11 4.4
2020-Jan-22 00:50 357 4 gusting 10 4.4
2020-Jan-22 00:40 355 3 gusting 11 4.4
2020-Jan-22 00:30 001 4 gusting 14 4.4
2020-Jan-22 00:20 001 3 gusting 9 4.4
2020-Jan-22 00:10 001 5 gusting 9 3.9
2020-Jan-22 00:00 358 6 gusting 13 3.9
2020-Jan-21 23:50 351 6 gusting 11 3.9
2020-Jan-21 23:40 357 5 gusting 11 3.9
2020-Jan-21 23:30 001 3 gusting 9 3.9
2020-Jan-21 23:20 358 5 gusting 9 3.3
2020-Jan-21 23:10 001 6 gusting 10 3.9
2020-Jan-21 23:00 357 6 gusting 11 3.9
2020-Jan-21 22:50 356 3 gusting 8 3.3
2020-Jan-21 22:40 001 6 gusting 9 3.3
2020-Jan-21 22:30 001 4 gusting 9 3.3
2020-Jan-21 22:20 001 4 gusting 11 3.3
2020-Jan-21 22:10 355 6 gusting 9 3.3
2020-Jan-21 22:00 001 5 gusting 7 3.3
2020-Jan-21 21:50 358 4 gusting 15 3.3
2020-Jan-21 21:40 356 6 gusting 13 3.3
2020-Jan-21 21:30 001 6 gusting 9 3.3
2020-Jan-21 21:20 353 5 gusting 13 3.3
2020-Jan-21 21:10 359 10 gusting 14 3.3
2020-Jan-21 21:00 347 12 gusting 14 3.3
2020-Jan-21 20:50 001 1 gusting 10 3.3
2020-Jan-21 20:40 348 6 gusting 10 3.3
2020-Jan-21 20:30 001 4 gusting 13 3.3
2020-Jan-21 20:20 001 8 gusting 14 3.3
2020-Jan-21 20:10 355 3 gusting 8 2.8
2020-Jan-21 20:00 001 6 gusting 9 2.8
2020-Jan-21 19:50 001 6 gusting 11 2.8
2020-Jan-21 19:40 001 7 gusting 13 2.8
2020-Jan-21 19:30 353 5 gusting 12 2.2
2020-Jan-21 19:20 001 6 gusting 10 2.2
2020-Jan-21 19:10 355 3 gusting 11 2.8
2020-Jan-21 19:00 358 6 gusting 9 2.2
2020-Jan-21 18:50 348 5 gusting 13 2.2
2020-Jan-21 18:40 351 3 gusting 9 2.8
2020-Jan-21 18:30 001 6 gusting 8 2.8
2020-Jan-21 18:20 353 4 gusting 9 2.2
2020-Jan-21 18:10 003 5 gusting 10 2.2
2020-Jan-21 18:00 038 6 gusting 13 2.2
2020-Jan-21 17:50 016 7 gusting 18 2.2
2020-Jan-21 17:40 357 9 gusting 18 2.2
2020-Jan-21 17:30 355 10 gusting 19 2.2
2020-Jan-21 17:20 355 11 gusting 16 1.7
2020-Jan-21 17:10 001 6 gusting 9 1.7
2020-Jan-21 17:00 354 5 gusting 12 1.7
2020-Jan-21 16:50 359 7 gusting 10 1.7
2020-Jan-21 16:40 358 6 gusting 9 1.7
2020-Jan-21 16:30 356 6 gusting 13 2.2
2020-Jan-21 16:20 350 9 gusting 15 2.2
2020-Jan-21 16:10 354 6 gusting 17 2.2
2020-Jan-21 16:00 001 7 gusting 14 2.2
2020-Jan-21 15:50 001 9 gusting 13 2.2
2020-Jan-21 15:40 001 10 gusting 13 2.2
2020-Jan-21 15:30 001 6 gusting 14 2.2
2020-Jan-21 15:20 357 10 gusting 15 2.2
2020-Jan-21 15:10 005 8 gusting 14 2.2
2020-Jan-21 15:00 012 6 gusting 15 2.2
2020-Jan-21 14:50 019 10 gusting 15 2.2
2020-Jan-21 14:40 036 9 gusting 15 1.7
2020-Jan-21 14:30 044 7 gusting 17 1.7
2020-Jan-21 14:20 031 8 gusting 14 1.7
2020-Jan-21 14:10 043 9 gusting 18 1.7
2020-Jan-21 14:00 019 9 gusting 14 1.7
2020-Jan-21 13:50 356 6 gusting 9 1.7
2020-Jan-21 13:40 039 5 gusting 12 1.7
2020-Jan-21 13:30 043 9 gusting 13 1.7
2020-Jan-21 13:20 045 6 gusting 12 1.7
2020-Jan-21 13:10 045 7 gusting 11 2.2
2020-Jan-21 13:00 046 6 gusting 15 2.2
2020-Jan-21 12:50 045 9 gusting 14 2.2
2020-Jan-21 12:40 045 8 gusting 19 2.2
2020-Jan-21 12:30 045 14 gusting 18 2.2
2020-Jan-21 12:20 045 7 gusting 21 2.2
2020-Jan-21 12:10 045 13 gusting 19 2.2
2020-Jan-21 12:00 045 9 gusting 19 2.2
2020-Jan-21 11:50 045 10 gusting 20 1.7
2020-Jan-21 11:40 041 11 gusting 20 1.7
2020-Jan-21 11:30 032 13 gusting 24 1.7
2020-Jan-21 11:20 033 10 gusting 26 2.2
2020-Jan-21 11:10 037 19 gusting 21 2.2
2020-Jan-21 11:00 034 8 gusting 22 2.2
2020-Jan-21 10:50 037 12 gusting 24 2.2
2020-Jan-21 10:40 039 17 gusting 23 2.8
2020-Jan-21 10:30 027 13 gusting 28 3.3
2020-Jan-21 10:20 034 13 gusting 19 3.3
2020-Jan-21 10:10 030 10 gusting 25 2.8
2020-Jan-21 10:00 033 13 gusting 19 2.8
2020-Jan-21 09:50 045 13 gusting 21 2.8
2020-Jan-21 09:40 042 11 gusting 19 2.8
2020-Jan-21 09:30 037 12 gusting 19 2.8
2020-Jan-21 09:20 006 14 gusting 22 2.8
2020-Jan-21 09:10 047 11 gusting 23 2.2
2020-Jan-21 09:00 030 15 gusting 19 2.2
2020-Jan-21 08:50 043 13 gusting 21 2.2
2020-Jan-21 08:40 044 11 gusting 26 2.2
2020-Jan-21 08:30 026 17 gusting 23 2.2
2020-Jan-21 08:20 039 15 gusting 19 2.2
2020-Jan-21 08:10 040 9 gusting 22 2.2
2020-Jan-21 08:00 023 12 gusting 19 2.2
2020-Jan-21 07:50 025 12 gusting 19 2.2
2020-Jan-21 07:40 014 7 gusting 18 2.2
2020-Jan-21 07:30 025 9 gusting 19 2.2
2020-Jan-21 07:20 022 11 gusting 22 2.2
2020-Jan-21 07:10 018 13 gusting 19 2.8
2020-Jan-21 07:00 028 9 gusting 23 2.8
2020-Jan-21 06:50 009 11 gusting 23 2.8
2020-Jan-21 06:40 032 10 gusting 18 2.8
2020-Jan-21 06:30 019 9 gusting 23 2.8
2020-Jan-21 06:20 035 12 gusting 19 2.8
2020-Jan-21 06:10 020 9 gusting 19 2.8
2020-Jan-21 06:00 012 10 gusting 18 2.2
2020-Jan-21 05:50 028 15 gusting 20 2.8
2020-Jan-21 05:40 034 13 gusting 22 2.8
2020-Jan-21 05:30 049 11 gusting 22 2.8
2020-Jan-21 05:20 073 12 gusting 19 2.8
2020-Jan-21 05:10 042 9 gusting 19 2.8
2020-Jan-21 05:00 045 9 gusting 16 2.8
2020-Jan-21 04:50 036 9 gusting 18 2.8
2020-Jan-21 04:40 046 11 gusting 19 2.8
2020-Jan-21 04:30 050 11 gusting 20 2.8
2020-Jan-21 04:20 048 18 gusting 22 2.8
2020-Jan-21 04:10 045 13 gusting 19 2.8
2020-Jan-21 04:00 045 12 gusting 21 2.8
2020-Jan-21 03:50 053 11 gusting 15 2.8
2020-Jan-21 03:40 071 4 gusting 8 2.8
2020-Jan-21 03:30 051 4 gusting 10 2.8
2020-Jan-21 03:20 359 6 gusting 12 2.8
2020-Jan-21 03:10 042 5 gusting 13 2.8
2020-Jan-21 03:00 048 3 gusting 14 2.8
2020-Jan-21 02:50 104 9 gusting 16 2.2
2020-Jan-21 02:40 113 6 gusting 14 2.2
2020-Jan-21 02:30 072 11 gusting 20 2.2
2020-Jan-21 02:20 018 14 gusting 19 2.2
2020-Jan-21 02:10 061 9 gusting 25 2.2
2020-Jan-21 02:00 045 18 gusting 25 1.7
2020-Jan-21 01:50 025 12 gusting 26 1.7
2020-Jan-21 01:40 033 13 gusting 23 1.7
2020-Jan-21 01:30 056 12 gusting 19 1.7
2020-Jan-21 01:20 041 8 gusting 16 1.7
2020-Jan-21 01:10 052 5 gusting 12 1.7
2020-Jan-21 01:00 101 8 gusting 14 1.7
2020-Jan-21 00:50 046 6 gusting 19 1.7
2020-Jan-21 00:40 358 13 gusting 26 1.7
2020-Jan-21 00:30 021 19 gusting 25 2.2
2020-Jan-21 00:20 024 18 gusting 26 2.2
2020-Jan-21 00:10 005 15 gusting 26 2.8
2020-Jan-21 00:00 346 18 gusting 29 2.8
2020-Jan-20 23:50 042 13 gusting 31 2.8
2020-Jan-20 23:40 046 18 gusting 26 2.8
2020-Jan-20 23:30 067 17 gusting 25 2.8
2020-Jan-20 23:20 072 16 gusting 26 2.8
2020-Jan-20 23:10 086 15 gusting 26 2.8
2020-Jan-20 23:00 042 15 gusting 26 2.8
2020-Jan-20 22:50 046 18 gusting 20 2.8
2020-Jan-20 22:40 064 14 gusting 19 2.8
2020-Jan-20 22:30 053 13 gusting 19 2.8
2020-Jan-20 22:20 059 11 gusting 19 2.8
2020-Jan-20 22:10 048 15 gusting 21 2.8
2020-Jan-20 22:00 039 13 gusting 23 2.8
2020-Jan-20 21:50 051 13 gusting 21 2.8
2020-Jan-20 21:40 048 13 gusting 21 2.2
2020-Jan-20 21:30 053 6 gusting 18 2.2
2020-Jan-20 21:20 042 13 gusting 19 2.2
2020-Jan-20 21:10 037 16 gusting 19 2.2
2020-Jan-20 21:00 068 10 gusting 18 2.2
2020-Jan-20 20:50 047 7 gusting 18 2.2
2020-Jan-20 20:40 051 14 gusting 22 1.7
2020-Jan-20 20:30 064 13 gusting 20 1.7
2020-Jan-20 20:20 043 13 gusting 23 2.2
2020-Jan-20 20:10 044 20 gusting 23 2.2
2020-Jan-20 20:00 046 14 gusting 23 2.2
2020-Jan-20 19:50 045 16 gusting 23 2.2
2020-Jan-20 19:40 051 19 gusting 24 2.2
2020-Jan-20 19:30 047 17 gusting 27 2.2
2020-Jan-20 19:20 047 22 gusting 32 2.2
2020-Jan-20 19:10 030 19 gusting 31 2.2
2020-Jan-20 19:00 004 20 gusting 27 2.8
2020-Jan-20 18:50 003 18 gusting 29 2.8
2020-Jan-20 18:40 353 17 gusting 26 2.2
2020-Jan-20 18:30 358 12 gusting 29 2.8
2020-Jan-20 18:20 021 16 gusting 28 2.8
2020-Jan-20 18:10 354 18 gusting 29 2.2
2020-Jan-20 18:00 003 13 gusting 30 2.2
2020-Jan-20 17:50 005 22 gusting 30 2.2
2020-Jan-20 17:40 013 10 gusting 26 2.8
2020-Jan-20 17:30 031 17 gusting 29 2.8
2020-Jan-20 17:20 046 19 gusting 25 2.8
2020-Jan-20 17:10 059 16 gusting 29 2.8
2020-Jan-20 17:00 023 15 gusting 31 3.3
2020-Jan-20 16:50 005 26 gusting 31 3.3
2020-Jan-20 16:40 359 19 gusting 31 3.9
2020-Jan-20 16:30 016 19 gusting 34 3.9
2020-Jan-20 16:20 040 23 gusting 37 3.9
2020-Jan-20 16:10 015 20 gusting 31 3.9
2020-Jan-20 16:00 039 18 gusting 31 3.9
2020-Jan-20 15:50 028 14 gusting 35 4.4
2020-Jan-20 15:40 017 16 gusting 31 4.4
2020-Jan-20 15:30 012 20 gusting 34 4.4
2020-Jan-20 15:20 015 20 gusting 31 4.4
2020-Jan-20 15:10 027 19 gusting 31 5.0
2020-Jan-20 15:00 011 19 gusting 31 4.4
2020-Jan-20 14:50 041 18 gusting 29 5.0
2020-Jan-20 14:40 048 13 gusting 25 5.6
2020-Jan-20 14:30 071 16 gusting 25 5.0
2020-Jan-20 14:20 070 13 gusting 26 5.6
2020-Jan-20 14:10 062 12 gusting 31 5.0
2020-Jan-20 14:00 035 13 gusting 26 4.4